"Pseudo-MPEC" for C2UD8X2

Created 2020 May 26 11:07:05 UT using Find_Orb

Click here for an explanation of pseudo-MPECs

 
 Astrometry: 
     C2UD8X2  C2020 05 21.43876 21 42 11.17 +08 44 37.4    ~5LBM 20.3 GVNEOCPG96
     C2UD8X2  C2020 05 21.44304 21 42 11.57 +08 44 44.4    ~5LBM       VNEOCPG96
     C2UD8X2  C2020 05 21.44732 21 42 12.04 +08 44 52.0    ~5LBM 20.6 GVNEOCPG96
     C2UD8X2  C2020 05 21.45160 21 42 12.46 +08 44 59.2    ~5LBM       VNEOCPG96
     C2UD8X2  C2020 05 21.46597 21 42 13.74 +08 45 23.0    ~5LBM 20.6 GVNEOCPI52
     C2UD8X2  C2020 05 21.46676 21 42 13.84 +08 45 24.2    ~5LBM       VNEOCPI52
     C2UD8X2  C2020 05 21.46753 21 42 13.93 +08 45 25.7    ~5LBM 20.7 GVNEOCPI52
     C2UD8X2  C2020 05 21.46832 21 42 14.05 +08 45 26.6    ~5LBM 19.9 GVNEOCPI52
     C2UD8X2  C2020 05 25psvlQK+Ec5)]3+03Z?Uhj^bj$kSMB#FrowAstrometryxvajYD#eF52
     C2UD8X2  C2020 05 25.jyMyg=;%Z_redacted;*Kb7x^:yW0PUd'.`:2KHclickVKu0lm%F52
     C2UD8X2  C2020 05 25LMeVR'mPhereea)vKZforQ6aGD!a0McAR_QexplanationDRVp%uF52
     C2UD8X2  C2020 05 26.42974 21 50 11.72 +11 03 55.8    ~5QAb 20.3 GVNEOCPI52
     C2UD8X2  C2020 05 26.43117 21 50 11.86 +11 03 58.2    ~5QAb 20.2 GVNEOCPI52
     C2UD8X2  C2020 05 26.43261 21 50 11.99 +11 04 00.8    ~5QAb 20.3 GVNEOCPI52
     C2UD8X2  C2020 05 26.43404 21 50 12.10 +11 04 03.2    ~5QAb 20.7 GVNEOCPI52

Station data:
(F52) Pan-STARRS 2, Haleakala  (N20.707384 W156.255910)  US/Hawaii. 1.8-m
   Ritchey-Chrétien + CCD.
(G96) Mt. Lemmon Survey  (N32.442754 W110.788720)  US/Arizona.  Observers T.
   A. Pruyne, B. M. Africano, E. J. Christensen, G. A. Farneth, D. C. Fuls,
   A. R. Gibbs, A. D. Grauer, H. Gröller, J. A. Johnson, R. A. Kowalski, S.
   M. Larson, G. J. Leonard, D. Rankin, R. L. Seaman, F. C. Shelly. 1.5-m
   reflector + 10K CCD.
(I52) Steward Observatory, Mt. Lemmon Station  (N32.442547 W110.788920)
   US/Arizona.  Observers T. A. Pruyne, B. M. Africano, E. J. Christensen, G.
   A. Farneth, D. C. Fuls, A. R. Gibbs, A. D. Grauer, H. Gröller, J. A.
   Johnson, R. A. Kowalski, S. M. Larson, G. J. Leonard, D. Rankin, R. L.
   Seaman, F. C. Shelly. 1.0-m reflector + CCD.

Orbital elements:  C2UD8X2
   Perihelion 2020 Jun 6.902803 +/- 1.91 TT = 21:40:02 (JD 2459007.402803)
Epoch 2020 May 26.0 TT = JDT 2458995.5   Earth MOID: 0.7296   AutoNEOCP
M 356.65725294 +/- 0.8              (J2000 ecliptic)
n   0.28083695 +/- 0.0432           Peri.   57.07882 +/- 1.1
a   2.30940380 +/- 0.237            Node   245.29754 +/- 1.3
e   0.2814076 +/- 0.063             Incl.   22.67119 +/- 0.41
P   3.51                   H 17.6   G  0.15   U 10.6  
q 1.65951999 +/- 0.0279    Q 2.95928762 +/- 0.505
From 15 observations 2020 May 21-26; mean residual 0".30
Residuals in arcseconds: 
200521 G96  .03+  .11-    200521 I52  .50-  .05-    200525 F52  .04-  .09+    
200521 G96  .18-  .26-    200521 I52  .27-  .16+    200526 I52  .01+  .08-    
200521 G96  .65+  .20+    200521 I52  .38+  .26-    200526 I52  .13+  .09-    
200521 G96  .74+  .25+    200525 F52  .07-  .09-    200526 I52  .09+  .08+    
200521 I52  .85-  .07+    200525 F52  .11+  .02+    200526 I52  .22-  .07+    

Ephemerides (geocentric):
Date (UTC) HH   RA              Dec         delta   r     elong  mag " sig PA
---- -- -- --  -------------   -----------  ------ ------ -----  --- ---- ---
2020 05 26 11  21 50 14.156   +11 04 46.68  1.2921 1.6615  91.4 20.7 .257 165
2020 05 26 12  21 50 18.067   +11 05 56.76  1.2919 1.6615  91.4 20.7 .279 163
2020 05 26 13  21 50 21.975   +11 07 06.84  1.2916 1.6615  91.4 20.7 .301 162
2020 05 26 14  21 50 25.882   +11 08 16.93  1.2913 1.6615  91.5 20.7 .324 160
2020 05 26 15  21 50 29.788   +11 09 27.02  1.2910 1.6614  91.5 20.7 .348 159
2020 05 26 16  21 50 33.691   +11 10 37.12  1.2907 1.6614  91.5 20.7 .372 158
2020 05 26 17  21 50 37.593   +11 11 47.22  1.2905 1.6614  91.5 20.7 .396 157
2020 05 26 18  21 50 41.494   +11 12 57.32  1.2902 1.6614  91.5 20.7 .421 156
2020 05 26 19  21 50 45.392   +11 14 07.43  1.2899 1.6614  91.5 20.7 .446 156
2020 05 26 20  21 50 49.289   +11 15 17.54  1.2896 1.6614  91.5 20.7 .472 155
2020 05 26 21  21 50 53.185   +11 16 27.66  1.2893 1.6614  91.6 20.7 .499 154
2020 05 26 22  21 50 57.078   +11 17 37.78  1.2891 1.6613  91.6 20.7 .526 154
2020 05 26 23  21 51 00.970   +11 18 47.90  1.2888 1.6613  91.6 20.7 .553 153
2020 05 27 00  21 51 04.860   +11 19 58.03  1.2885 1.6613  91.6 20.7 .580 153
2020 05 27 01  21 51 08.748   +11 21 08.16  1.2882 1.6613  91.6 20.7 .609 152
2020 05 27 02  21 51 12.635   +11 22 18.29  1.2880 1.6613  91.6 20.7 .637 152
2020 05 27 03  21 51 16.520   +11 23 28.43  1.2877 1.6613  91.6 20.7 .666 151
2020 05 27 04  21 51 20.403   +11 24 38.57  1.2874 1.6613  91.7 20.7 .696 151
2020 05 27 05  21 51 24.285   +11 25 48.71  1.2871 1.6612  91.7 20.7 .725 151
2020 05 27 06  21 51 28.165   +11 26 58.86  1.2868 1.6612  91.7 20.7 .756 150
2020 05 27 07  21 51 32.043   +11 28 09.01  1.2866 1.6612  91.7 20.7 .786 150
2020 05 27 08  21 51 35.920   +11 29 19.17  1.2863 1.6612  91.7 20.7 .817 150
2020 05 27 09  21 51 39.794   +11 30 29.33  1.2860 1.6612  91.7 20.7 .849 150
2020 05 27 10  21 51 43.668   +11 31 39.49  1.2857 1.6612  91.8 20.7 .881 149
2020 05 27 11  21 51 47.539   +11 32 49.65  1.2854 1.6612  91.8 20.7 .913 149
2020 05 27 12  21 51 51.409   +11 33 59.82  1.2852 1.6612  91.8 20.7 .946 149
2020 05 27 13  21 51 55.277   +11 35 09.99  1.2849 1.6611  91.8 20.7 .979 149
2020 05 27 14  21 51 59.143   +11 36 20.17  1.2846 1.6611  91.8 20.7 1.01 149
2020 05 27 15  21 52 03.007   +11 37 30.35  1.2843 1.6611  91.8 20.7 1.05 149
2020 05 27 16  21 52 06.870   +11 38 40.53  1.2841 1.6611  91.8 20.7 1.08 148
2020 05 27 17  21 52 10.731   +11 39 50.72  1.2838 1.6611  91.9 20.7 1.12 148
2020 05 27 18  21 52 14.591   +11 41 00.91  1.2835 1.6611  91.9 20.7 1.15 148
2020 05 27 19  21 52 18.449   +11 42 11.10  1.2832 1.6611  91.9 20.7 1.19 148
2020 05 27 20  21 52 22.305   +11 43 21.29  1.2830 1.6611  91.9 20.7 1.22 148
2020 05 27 21  21 52 26.159   +11 44 31.49  1.2827 1.6610  91.9 20.7 1.26 148
2020 05 27 22  21 52 30.011   +11 45 41.69  1.2824 1.6610  91.9 20.7 1.30 148
2020 05 27 23  21 52 33.862   +11 46 51.90  1.2821 1.6610  91.9 20.7 1.33 148
2020 05 28 00  21 52 37.711   +11 48 02.11  1.2818 1.6610  92.0 20.7 1.37 148
2020 05 28 01  21 52 41.559   +11 49 12.32  1.2816 1.6610  92.0 20.7 1.41 147
2020 05 28 02  21 52 45.404   +11 50 22.53  1.2813 1.6610  92.0 20.7 1.45 147
2020 05 28 03  21 52 49.248   +11 51 32.75  1.2810 1.6610  92.0 20.7 1.49 147
2020 05 28 04  21 52 53.091   +11 52 42.97  1.2807 1.6610  92.0 20.7 1.53 147
2020 05 28 05  21 52 56.931   +11 53 53.19  1.2805 1.6609  92.0 20.7 1.57 147
2020 05 28 06  21 53 00.770   +11 55 03.42  1.2802 1.6609  92.0 20.7 1.61 147
2020 05 28 07  21 53 04.607   +11 56 13.65  1.2799 1.6609  92.1 20.7 1.65 147
2020 05 28 08  21 53 08.443   +11 57 23.88  1.2796 1.6609  92.1 20.7 1.69 147
2020 05 28 09  21 53 12.276   +11 58 34.11  1.2794 1.6609  92.1 20.7 1.73 147
2020 05 28 10  21 53 16.108   +11 59 44.35  1.2791 1.6609  92.1 20.7 1.77 147